| time (UTC) | temp F | wind direction | speed MPH | gust MPH | rain 1hr in | rain 24hr in | rain mn in | humidity % | barometer mb |
| 20260831084400 | 82 | 153 | 7.0 | 7.0 | 0.00 | 0.00 | 0.00 | 50 | 1015.2 |
| 20260831083900 | 80 | 225 | 6.0 | 10.0 | 0.00 | 0.00 | 0.00 | 52 | 1015.2 |
| 20260831083400 | 81 | 270 | 5.0 | 10.0 | 0.00 | 0.00 | 0.00 | 48 | 1015.2 |
| 20260831082901 | 83 | 219 | 3.0 | 3.0 | 0.00 | 0.00 | 0.00 | 52 | 1015.2 |
| 20260831082400 | 81 | 203 | 7.0 | 8.0 | 0.00 | 0.00 | 0.00 | 50 | 1015.2 |
| 20260831081901 | 81 | 206 | 4.0 | 4.0 | 0.00 | 0.00 | 0.00 | 52 | 1015.2 |
| 20260831081401 | 80 | 222 | 3.0 | 4.0 | 0.00 | 0.00 | 0.00 | 53 | 1015.2 |
| 20260831081239 | 80 | 222 | 3.0 | 4.0 | 0.00 | 0.00 | 0.00 | 53 | 1015.2 |
| 20260831080739 | 81 | 248 | 3.0 | 3.0 | 0.00 | 0.00 | 0.00 | 51 | 1015.2 |
| 20260831080239 | 80 | 263 | 2.0 | 3.0 | 0.00 | 0.00 | 0.00 | 54 | 1015.2 |
| 20260831075739 | 78 | 270 | 5.0 | 6.0 | 0.00 | 0.00 | 0.00 | 55 | 1015.2 |
| 20260831075239 | 79 | 264 | 3.0 | 6.0 | 0.00 | 0.00 | 0.00 | 55 | 1015.2 |
| 20260831074739 | 80 | 236 | 3.0 | 4.0 | 0.00 | 0.00 | 0.00 | 53 | 1015.2 |
| 20260831074239 | 78 | 193 | 5.0 | 7.0 | 0.00 | 0.00 | 0.00 | 56 | 1015.2 |
| 20260831073739 | 79 | 264 | 6.0 | 9.0 | 0.00 | 0.00 | 0.00 | 54 | 1015.2 |
| 20260831073239 | 78 | 281 | 2.0 | 4.0 | 0.00 | 0.00 | 0.00 | 61 | 1015.2 |
| 20260831072739 | 78 | 302 | 4.0 | 9.0 | 0.00 | 0.00 | 0.00 | 59 | 1015.2 |
| 20260831072239 | 77 | 215 | 5.0 | 6.0 | 0.00 | 0.00 | 0.00 | 59 | 1015.2 |
| 20260831071739 | 78 | 261 | 2.0 | 2.0 | 0.00 | 0.00 | 0.00 | 61 | 1015.2 |
| 20260831071239 | 77 | 258 | 3.0 | 6.0 | 0.00 | 0.00 | 0.00 | 62 | 1015.2 |
| 20260831070739 | 76 | 131 | 4.0 | 6.0 | 0.00 | 0.00 | 0.00 | 63 | 1015.2 |
| 20260831070239 | 76 | 352 | 1.0 | 2.0 | 0.00 | 0.00 | 0.00 | 70 | 1015.2 |
| 20260831065739 | 74 | 353 | 2.0 | 2.0 | 0.00 | 0.00 | 0.00 | 72 | 1015.9 |
| 20260831065239 | 73 | 330 | 1.0 | 1.0 | 0.00 | 0.00 | 0.00 | 78 | 1015.9 |
| 20260831064739 | 73 | 329 | 0.0 | 0.0 | 0.00 | 0.00 | 0.00 | 76 | 1015.9 |
| 20260831064239 | 71 | 322 | 0.0 | 1.0 | 0.00 | 0.00 | 0.00 | 83 | 1015.9 |
| 20260831063739 | 69 | 322 | 0.0 | 0.0 | 0.00 | 0.00 | 0.00 | 89 | 1015.9 |
| 20260831063239 | 67 | 320 | 0.0 | 0.0 | 0.00 | 0.00 | 0.00 | 90 | 1015.9 |
| 20260831062739 | 67 | 321 | 0.0 | 0.0 | 0.00 | 0.00 | 0.00 | 92 | 1015.9 |
| 20260831062239 | 66 | 321 | 0.0 | 0.0 | 0.00 | 0.00 | 0.00 | 93 | 1015.9 |
| 20260831061739 | 65 | 319 | 0.0 | 0.0 | 0.00 | 0.00 | 0.00 | 96 | 1015.9 |
| 20260831061239 | 64 | 321 | 0.0 | 0.0 | 0.00 | 0.00 | 0.00 | 97 | 1015.9 |
| 20260831060739 | 63 | 322 | 0.0 | 0.0 | 0.00 | 0.00 | 0.00 | 97 | 1015.9 |
| 20260831060239 | 63 | 317 | 0.0 | 0.0 | 0.00 | 0.00 | 0.00 | 99 | 1015.9 |
| 20260831055739 | 61 | 278 | 2.0 | 2.0 | 0.00 | 0.00 | 0.00 | 99 | 1016.3 |
| 20260831055239 | 61 | 270 | 2.0 | 2.0 | 0.00 | 0.00 | 0.00 | 99 | 1016.3 |
| 20260831054739 | 61 | 319 | 0.0 | 0.0 | 0.00 | 0.00 | 0.00 | 99 | 1016.3 |
| 20260831054239 | 60 | 278 | 1.0 | 2.0 | 0.00 | 0.00 | 0.00 | 99 | 1016.3 |
| 20260831053739 | 59 | 316 | 1.0 | 1.0 | 0.00 | 0.00 | 0.00 | 99 | 1016.3 |
| 20260831053239 | 59 | 322 | 0.0 | 0.0 | 0.00 | 0.00 | 0.00 | 99 | 1016.3 |
| 20260831052739 | 58 | 320 | 0.0 | 0.0 | 0.00 | 0.00 | 0.00 | 99 | 1016.3 |
| 20260831052239 | 59 | 327 | 0.0 | 0.0 | 0.00 | 0.00 | 0.00 | 99 | 1016.3 |
| 20260831051739 | 59 | 327 | 0.0 | 0.0 | 0.00 | 0.00 | 0.00 | 99 | 1016.3 |
| 20260831051239 | 58 | 328 | 0.0 | 0.0 | 0.00 | 0.00 | 0.00 | 99 | 1015.9 |
| 20260831050739 | 57 | 328 | 0.0 | 0.0 | 0.00 | 0.00 | 0.00 | 99 | 1015.9 |
| 20260831050239 | 57 | 327 | 0.0 | 0.0 | 0.00 | 0.00 | 0.00 | 99 | 1015.9 |
| 20260831045739 | 56 | 327 | 0.0 | 0.0 | 0.00 | 0.00 | 0.00 | 99 | 1016.3 |
| 20260831045239 | 56 | 330 | 0.0 | 0.0 | 0.00 | 0.00 | 0.00 | 99 | 1016.3 |
| 20260831044739 | 55 | 330 | 0.0 | 0.0 | 0.00 | 0.00 | 0.00 | 99 | 1016.3 |
| 20260831044239 | 54 | 330 | 0.0 | 0.0 | 0.00 | 0.00 | 0.00 | 99 | 1016.3 |
| 20260831043739 | 53 | 331 | 0.0 | 0.0 | 0.00 | 0.00 | 0.00 | 99 | 1016.3 |
| 20260831043239 | 53 | 330 | 0.0 | 0.0 | 0.00 | 0.00 | 0.00 | 99 | 1016.3 |
| 20260831042739 | 53 | 334 | 0.0 | 0.0 | 0.00 | 0.00 | 0.00 | 99 | 1016.3 |
| 20260831042239 | 53 | 335 | 0.0 | 0.0 | 0.00 | 0.00 | 0.00 | 99 | 1016.3 |
| 20260831041739 | 53 | 335 | 0.0 | 0.0 | 0.00 | 0.00 | 0.00 | 99 | 1016.3 |
| 20260831041239 | 53 | 334 | 0.0 | 0.0 | 0.00 | 0.00 | 0.00 | 99 | 1015.9 |
| 20260831040739 | 53 | 334 | 0.0 | 0.0 | 0.00 | 0.00 | 0.00 | 99 | 1015.9 |
| 20260831040239 | 53 | 333 | 0.0 | 0.0 | 0.00 | 0.00 | 0.00 | 99 | 1015.9 |
| 20260831035739 | 53 | 335 | 0.0 | 0.0 | 0.00 | 0.00 | 0.00 | 99 | 1016.3 |
| 20260831035239 | 53 | 336 | 0.0 | 0.0 | 0.00 | 0.00 | 0.00 | 99 | 1016.3 |
| 20260831034739 | 53 | 335 | 0.0 | 0.0 | 0.00 | 0.00 | 0.00 | 99 | 1016.3 |
| 20260831034239 | 53 | 335 | 0.0 | 0.0 | 0.00 | 0.00 | 0.00 | 99 | 1016.3 |
| 20260831033739 | 53 | 335 | 0.0 | 0.0 | 0.00 | 0.00 | 0.00 | 99 | 1016.3 |
| 20260831033239 | 53 | 336 | 0.0 | 0.0 | 0.00 | 0.00 | 0.00 | 99 | 1016.3 |
| 20260831032739 | 53 | 336 | 0.0 | 0.0 | 0.00 | 0.00 | 0.00 | 99 | 1016.3 |
| 20260831032239 | 53 | 335 | 0.0 | 0.0 | 0.00 | 0.00 | 0.00 | 99 | 1016.3 |
| 20260831031739 | 53 | 335 | 0.0 | 0.0 | 0.00 | 0.00 | 0.00 | 99 | 1016.3 |
| 20260831031239 | 53 | 335 | 0.0 | 0.0 | 0.00 | 0.00 | 0.00 | 99 | 1016.3 |
| 20260831030739 | 53 | 339 | 0.0 | 0.0 | 0.00 | 0.00 | 0.00 | 99 | 1016.3 |
| 20260831030239 | 53 | 333 | 0.0 | 0.0 | 0.00 | 0.00 | 0.00 | 99 | 1016.3 |
| 20260831025739 | 53 | 333 | 0.0 | 0.0 | 0.00 | 0.00 | 0.00 | 99 | 1016.3 |
| 20260831025239 | 53 | 333 | 0.0 | 0.0 | 0.00 | 0.00 | 0.00 | 99 | 1016.3 |
| 20260831024739 | 53 | 334 | 0.0 | 0.0 | 0.00 | 0.00 | 0.00 | 99 | 1016.3 |
| 20260831024239 | 53 | 335 | 0.0 | 0.0 | 0.00 | 0.00 | 0.00 | 99 | 1016.3 |
| 20260831023739 | 53 | 335 | 0.0 | 0.0 | 0.00 | 0.00 | 0.00 | 99 | 1016.3 |
| 20260831023239 | 54 | 331 | 0.0 | 0.0 | 0.00 | 0.00 | 0.00 | 99 | 1016.3 |
| 20260831022739 | 53 | 331 | 0.0 | 0.0 | 0.00 | 0.00 | 0.00 | 99 | 1016.3 |
| 20260831022239 | 54 | 331 | 0.0 | 0.0 | 0.00 | 0.00 | 0.00 | 99 | 1016.3 |
| 20260831021739 | 54 | 331 | 0.0 | 0.0 | 0.00 | 0.00 | 0.00 | 99 | 1016.3 |
| 20260831021239 | 54 | 332 | 0.0 | 0.0 | 0.00 | 0.00 | 0.00 | 99 | 1016.3 |
| 20260831020739 | 54 | 331 | 0.0 | 0.0 | 0.00 | 0.00 | 0.00 | 99 | 1016.3 |
| 20260831020239 | 54 | 331 | 0.0 | 0.0 | 0.00 | 0.00 | 0.00 | 99 | 1016.3 |
| 20260831015739 | 55 | 338 | 0.0 | 0.0 | 0.00 | 0.00 | 0.00 | 99 | 1016.3 |
| 20260831015239 | 55 | 339 | 0.0 | 0.0 | 0.00 | 0.00 | 0.00 | 99 | 1016.3 |
| 20260831014739 | 55 | 339 | 0.0 | 0.0 | 0.00 | 0.00 | 0.00 | 99 | 1016.3 |
| 20260831014239 | 55 | 339 | 0.0 | 0.0 | 0.00 | 0.00 | 0.00 | 99 | 1016.3 |
| 20260831013739 | 55 | 335 | 0.0 | 0.0 | 0.00 | 0.00 | 0.00 | 99 | 1016.6 |
| 20260831013239 | 55 | 331 | 0.0 | 0.0 | 0.00 | 0.00 | 0.00 | 99 | 1016.6 |
| 20260831012739 | 55 | 331 | 0.0 | 0.0 | 0.00 | 0.00 | 0.00 | 99 | 1016.6 |
| 20260831012239 | 55 | 331 | 0.0 | 0.0 | 0.00 | 0.00 | 0.00 | 99 | 1016.3 |
| 20260831011739 | 55 | 331 | 0.0 | 0.0 | 0.00 | 0.00 | 0.00 | 99 | 1016.3 |
| 20260831011239 | 56 | 331 | 0.0 | 0.0 | 0.00 | 0.00 | 0.00 | 99 | 1016.3 |
| 20260831010739 | 56 | 332 | 0.0 | 0.0 | 0.00 | 0.00 | 0.00 | 99 | 1016.3 |
| 20260831010239 | 56 | 334 | 0.0 | 0.0 | 0.00 | 0.00 | 0.00 | 99 | 1016.3 |
| 20260831005739 | 55 | 334 | 0.0 | 0.0 | 0.00 | 0.00 | 0.00 | 99 | 1016.3 |
| 20260831005239 | 56 | 334 | 0.0 | 0.0 | 0.00 | 0.00 | 0.00 | 99 | 1016.3 |
| 20260831004739 | 56 | 333 | 0.0 | 0.0 | 0.00 | 0.00 | 0.00 | 99 | 1016.6 |
| 20260831004239 | 56 | 334 | 0.0 | 0.0 | 0.00 | 0.00 | 0.00 | 99 | 1016.6 |
| 20260831003739 | 56 | 333 | 0.0 | 0.0 | 0.00 | 0.00 | 0.00 | 99 | 1016.6 |
| 20260831003239 | 56 | 333 | 0.0 | 0.0 | 0.00 | 0.00 | 0.00 | 99 | 1016.6 |
| 20260831002739 | 56 | 338 | 0.0 | 0.0 | 0.00 | 0.00 | 0.00 | 99 | 1016.6 |
| 20260831002239 | 56 | 331 | 0.0 | 0.0 | 0.00 | 0.00 | 0.00 | 99 | 1016.6 |
| 20260831001739 | 56 | 332 | 0.0 | 0.0 | 0.00 | 0.00 | 0.00 | 99 | 1016.6 |
| 20260831001239 | 56 | 332 | 0.0 | 0.0 | 0.00 | 0.00 | 0.00 | 99 | 1016.9 |
| 20260831000739 | 56 | 332 | 0.0 | 0.0 | 0.00 | 0.00 | 0.00 | 99 | 1016.9 |
| 20260831000241 | 56 | 332 | 0.0 | 0.0 | 0.00 | 0.00 | 0.00 | 99 | 1016.9 |
| 20260830235739 | 56 | 332 | 0.0 | 1.0 | 0.00 | 0.00 | 0.00 | 99 | 1016.9 |
| 20260830235239 | 56 | 336 | 0.0 | 1.0 | 0.00 | 0.00 | 0.00 | 99 | 1016.9 |
| 20260830234739 | 57 | 328 | 0.0 | 0.0 | 0.00 | 0.00 | 0.00 | 99 | 1016.9 |
| 20260830234239 | 56 | 320 | 0.0 | 0.0 | 0.00 | 0.00 | 0.00 | 99 | 1016.9 |
| 20260830233739 | 56 | 318 | 0.0 | 0.0 | 0.00 | 0.00 | 0.00 | 99 | 1016.9 |
| 20260830233239 | 57 | 320 | 0.0 | 0.0 | 0.00 | 0.00 | 0.00 | 99 | 1016.9 |
| 20260830232739 | 57 | 342 | 1.0 | 1.0 | 0.00 | 0.00 | 0.00 | 99 | 1016.9 |
| 20260830232239 | 57 | 333 | 0.0 | 0.0 | 0.00 | 0.00 | 0.00 | 99 | 1016.9 |
| 20260830231739 | 57 | 333 | 0.0 | 0.0 | 0.00 | 0.00 | 0.00 | 99 | 1016.9 |
| 20260830231239 | 57 | 333 | 0.0 | 0.0 | 0.00 | 0.00 | 0.00 | 99 | 1016.9 |
| 20260830230739 | 58 | 333 | 0.0 | 0.0 | 0.00 | 0.00 | 0.00 | 99 | 1016.9 |
| 20260830230239 | 58 | 333 | 0.0 | 0.0 | 0.00 | 0.00 | 0.00 | 99 | 1016.9 |
| 20260830225739 | 58 | 333 | 0.0 | 0.0 | 0.00 | 0.00 | 0.00 | 99 | 1016.9 |
| 20260830225239 | 57 | 333 | 0.0 | 0.0 | 0.00 | 0.00 | 0.00 | 99 | 1016.9 |
| 20260830224739 | 57 | 330 | 0.0 | 0.0 | 0.00 | 0.00 | 0.00 | 99 | 1016.9 |
| 20260830224239 | 58 | 330 | 0.0 | 0.0 | 0.00 | 0.00 | 0.00 | 99 | 1016.9 |
| 20260830223739 | 58 | 329 | 0.0 | 1.0 | 0.00 | 0.00 | 0.00 | 99 | 1016.9 |
| 20260830223239 | 58 | 332 | 0.0 | 0.0 | 0.00 | 0.00 | 0.00 | 99 | 1016.9 |
| 20260830222739 | 58 | 329 | 0.0 | 0.0 | 0.00 | 0.00 | 0.00 | 99 | 1016.9 |
| 20260830222239 | 58 | 327 | 0.0 | 0.0 | 0.00 | 0.00 | 0.00 | 99 | 1016.9 |
| 20260830221739 | 58 | 329 | 0.0 | 0.0 | 0.00 | 0.00 | 0.00 | 99 | 1016.9 |
| 20260830221239 | 58 | 322 | 0.0 | 0.0 | 0.00 | 0.00 | 0.00 | 99 | 1016.9 |
| 20260830220739 | 59 | 317 | 0.0 | 0.0 | 0.00 | 0.00 | 0.00 | 99 | 1016.9 |
| 20260830220239 | 59 | 325 | 0.0 | 0.0 | 0.00 | 0.00 | 0.00 | 99 | 1016.9 |
| 20260830215739 | 59 | 328 | 5.0 | 6.0 | 0.00 | 0.00 | 0.00 | 99 | 1016.9 |
| 20260830215239 | 59 | 330 | 0.0 | 0.0 | 0.00 | 0.00 | 0.00 | 99 | 1016.9 |
| 20260830214739 | 59 | 347 | 1.0 | 2.0 | 0.00 | 0.00 | 0.00 | 99 | 1016.6 |
| 20260830214239 | 59 | 324 | 0.0 | 0.0 | 0.00 | 0.00 | 0.00 | 99 | 1016.6 |
| 20260830213739 | 59 | 324 | 0.0 | 0.0 | 0.00 | 0.00 | 0.00 | 99 | 1016.6 |
| 20260830213239 | 59 | 324 | 0.0 | 0.0 | 0.00 | 0.00 | 0.00 | 99 | 1016.6 |
| 20260830212739 | 59 | 324 | 0.0 | 0.0 | 0.00 | 0.00 | 0.00 | 99 | 1016.6 |
| 20260830212239 | 59 | 324 | 0.0 | 0.0 | 0.00 | 0.00 | 0.00 | 99 | 1016.9 |
| 20260830211739 | 59 | 323 | 0.0 | 0.0 | 0.00 | 0.00 | 0.00 | 99 | 1016.9 |
| 20260830211239 | 59 | 323 | 0.0 | 0.0 | 0.00 | 0.00 | 0.00 | 99 | 1016.6 |
| 20260830210739 | 59 | 324 | 0.0 | 0.0 | 0.00 | 0.00 | 0.00 | 99 | 1016.6 |
| 20260830210239 | 59 | 324 | 0.0 | 0.0 | 0.00 | 0.00 | 0.00 | 99 | 1016.6 |
| 20260830205739 | 59 | 324 | 0.0 | 0.0 | 0.00 | 0.00 | 0.00 | 99 | 1016.6 |
| 20260830205239 | 59 | 324 | 0.0 | 0.0 | 0.00 | 0.00 | 0.00 | 99 | 1016.6 |
| 20260830204739 | 59 | 332 | 0.0 | 0.0 | 0.00 | 0.00 | 0.00 | 99 | 1016.6 |
| 20260830204239 | 60 | 332 | 0.0 | 0.0 | 0.00 | 0.00 | 0.00 | 99 | 1016.6 |
| 20260830203739 | 60 | 332 | 0.0 | 0.0 | 0.00 | 0.00 | 0.00 | 99 | 1016.6 |
| 20260830203239 | 60 | 331 | 0.0 | 0.0 | 0.00 | 0.00 | 0.00 | 99 | 1016.6 |
| 20260830202739 | 60 | 332 | 0.0 | 0.0 | 0.00 | 0.00 | 0.00 | 99 | 1016.6 |
| 20260830202239 | 60 | 332 | 0.0 | 0.0 | 0.00 | 0.00 | 0.00 | 99 | 1016.6 |
| 20260830201739 | 60 | 332 | 0.0 | 0.0 | 0.00 | 0.00 | 0.00 | 99 | 1016.6 |
| 20260830201239 | 60 | 331 | 0.0 | 0.0 | 0.00 | 0.00 | 0.00 | 99 | 1016.6 |
| 20260830200739 | 60 | 332 | 0.0 | 0.0 | 0.00 | 0.00 | 0.00 | 99 | 1016.6 |
| 20260830200239 | 60 | 332 | 0.0 | 0.0 | 0.00 | 0.00 | 0.00 | 99 | 1016.6 |
| 20260830195739 | 60 | 336 | 0.0 | 0.0 | 0.00 | 0.00 | 0.00 | 99 | 1016.6 |
| 20260830195239 | 61 | 342 | 0.0 | 0.0 | 0.00 | 0.00 | 0.00 | 99 | 1016.6 |
| 20260830194739 | 61 | 336 | 0.0 | 0.0 | 0.00 | 0.00 | 0.00 | 99 | 1016.6 |
| 20260830194239 | 61 | 336 | 0.0 | 0.0 | 0.00 | 0.00 | 0.00 | 98 | 1016.6 |
| 20260830193739 | 61 | 337 | 0.0 | 0.0 | 0.00 | 0.00 | 0.00 | 98 | 1016.3 |
| 20260830193239 | 62 | 336 | 0.0 | 0.0 | 0.00 | 0.00 | 0.00 | 98 | 1016.3 |
| 20260830192739 | 62 | 336 | 0.0 | 0.0 | 0.00 | 0.00 | 0.00 | 97 | 1016.3 |
| 20260830192239 | 62 | 344 | 1.0 | 1.0 | 0.00 | 0.00 | 0.00 | 97 | 1016.6 |
| 20260830191739 | 62 | 335 | 0.0 | 0.0 | 0.00 | 0.00 | 0.00 | 97 | 1016.6 |
| 20260830191239 | 62 | 334 | 0.0 | 0.0 | 0.00 | 0.00 | 0.00 | 96 | 1016.6 |
| 20260830190739 | 63 | 334 | 0.0 | 0.0 | 0.00 | 0.00 | 0.00 | 96 | 1016.6 |
| 20260830190239 | 63 | 337 | 0.0 | 0.0 | 0.00 | 0.00 | 0.00 | 94 | 1016.6 |
| 20260830185739 | 63 | 341 | 0.0 | 0.0 | 0.00 | 0.00 | 0.00 | 94 | 1016.6 |
| 20260830185239 | 64 | 341 | 0.0 | 0.0 | 0.00 | 0.00 | 0.00 | 94 | 1016.6 |
| 20260830184739 | 64 | 326 | 0.0 | 0.0 | 0.00 | 0.00 | 0.00 | 94 | 1016.6 |
| 20260830184239 | 64 | 327 | 0.0 | 0.0 | 0.00 | 0.00 | 0.00 | 94 | 1016.6 |
| 20260830183739 | 64 | 335 | 0.0 | 0.0 | 0.00 | 0.00 | 0.00 | 92 | 1016.3 |
| 20260830183239 | 65 | 329 | 0.0 | 0.0 | 0.00 | 0.00 | 0.00 | 94 | 1016.3 |
| 20260830182739 | 65 | 331 | 0.0 | 0.0 | 0.00 | 0.00 | 0.00 | 91 | 1016.3 |
| 20260830182239 | 65 | 331 | 0.0 | 0.0 | 0.00 | 0.00 | 0.00 | 91 | 1016.3 |
| 20260830181739 | 65 | 331 | 0.0 | 0.0 | 0.00 | 0.00 | 0.00 | 92 | 1016.3 |
| 20260830181239 | 65 | 327 | 0.0 | 0.0 | 0.00 | 0.00 | 0.00 | 91 | 1015.9 |
| 20260830180739 | 65 | 337 | 0.0 | 0.0 | 0.00 | 0.00 | 0.00 | 88 | 1015.9 |
| 20260830180239 | 65 | 337 | 0.0 | 0.0 | 0.00 | 0.00 | 0.00 | 88 | 1015.9 |
| 20260830175739 | 66 | 337 | 0.0 | 0.0 | 0.00 | 0.00 | 0.00 | 89 | 1015.9 |
| 20260830175239 | 67 | 334 | 0.0 | 0.0 | 0.00 | 0.00 | 0.00 | 87 | 1015.9 |
| 20260830174739 | 67 | 333 | 0.0 | 0.0 | 0.00 | 0.00 | 0.00 | 87 | 1015.9 |
| 20260830174239 | 67 | 337 | 0.0 | 0.0 | 0.00 | 0.00 | 0.00 | 85 | 1015.9 |
| 20260830173739 | 68 | 333 | 0.0 | 0.0 | 0.00 | 0.00 | 0.00 | 88 | 1015.2 |
| 20260830173239 | 68 | 334 | 0.0 | 0.0 | 0.00 | 0.00 | 0.00 | 80 | 1015.2 |
| 20260830172739 | 68 | 330 | 0.0 | 1.0 | 0.00 | 0.00 | 0.00 | 82 | 1015.2 |
| 20260830172239 | 69 | 332 | 0.0 | 0.0 | 0.00 | 0.00 | 0.00 | 82 | 1015.2 |
| 20260830171739 | 69 | 332 | 0.0 | 0.0 | 0.00 | 0.00 | 0.00 | 81 | 1015.2 |
| 20260830171239 | 70 | 335 | 1.0 | 1.0 | 0.00 | 0.00 | 0.00 | 80 | 1015.2 |
| 20260830170739 | 71 | 306 | 1.0 | 2.0 | 0.00 | 0.00 | 0.00 | 77 | 1015.2 |
| 20260830170239 | 73 | 333 | 0.0 | 0.0 | 0.00 | 0.00 | 0.00 | 76 | 1015.2 |
| 20260830165739 | 73 | 332 | 0.0 | 0.0 | 0.00 | 0.00 | 0.00 | 73 | 1015.2 |
| 20260830165239 | 73 | 326 | 0.0 | 0.0 | 0.00 | 0.00 | 0.00 | 70 | 1015.2 |
| 20260830164739 | 74 | 312 | 1.0 | 1.0 | 0.00 | 0.00 | 0.00 | 71 | 1015.2 |
| 20260830164239 | 74 | 329 | 0.0 | 0.0 | 0.00 | 0.00 | 0.00 | 65 | 1015.2 |
| 20260830163739 | 75 | 329 | 0.0 | 1.0 | 0.00 | 0.00 | 0.00 | 64 | 1015.2 |
| 20260830163239 | 76 | 281 | 2.0 | 2.0 | 0.00 | 0.00 | 0.00 | 58 | 1015.2 |
| 20260830162739 | 78 | 332 | 0.0 | 0.0 | 0.00 | 0.00 | 0.00 | 51 | 1015.2 |
| 20260830162239 | 78 | 330 | 0.0 | 0.0 | 0.00 | 0.00 | 0.00 | 50 | 1015.2 |
| 20260830161739 | 78 | 321 | 0.0 | 1.0 | 0.00 | 0.00 | 0.00 | 49 | 1015.2 |
| 20260830161239 | 78 | 323 | 2.0 | 6.0 | 0.00 | 0.00 | 0.00 | 49 | 1015.2 |
| 20260830160739 | 79 | 301 | 1.0 | 2.0 | 0.00 | 0.00 | 0.00 | 49 | 1015.2 |
| 20260830160239 | 79 | 327 | 3.0 | 3.0 | 0.00 | 0.00 | 0.00 | 47 | 1015.2 |
| 20260830155739 | 79 | 322 | 1.0 | 2.0 | 0.00 | 0.00 | 0.00 | 46 | 1015.2 |
| 20260830155239 | 80 | 307 | 2.0 | 3.0 | 0.00 | 0.00 | 0.00 | 45 | 1015.2 |
| 20260830154739 | 81 | 286 | 3.0 | 3.0 | 0.00 | 0.00 | 0.00 | 43 | 1015.2 |
| 20260830154239 | 83 | 335 | 3.0 | 3.0 | 0.00 | 0.00 | 0.00 | 42 | 1015.2 |
| 20260830153739 | 82 | 285 | 9.0 | 17.0 | 0.00 | 0.00 | 0.00 | 41 | 1015.2 |
| 20260830153239 | 82 | 254 | 2.0 | 4.0 | 0.00 | 0.00 | 0.00 | 43 | 1015.2 |
| 20260830152739 | 82 | 212 | 7.0 | 10.0 | 0.00 | 0.00 | 0.00 | 42 | 1015.2 |
| 20260830152239 | 82 | 223 | 6.0 | 6.0 | 0.00 | 0.00 | 0.00 | 41 | 1015.9 |
| 20260830151739 | 83 | 216 | 5.0 | 6.0 | 0.00 | 0.00 | 0.00 | 42 | 1015.9 |
| 20260830151239 | 83 | 312 | 3.0 | 5.0 | 0.00 | 0.00 | 0.00 | 43 | 1015.9 |
| 20260830150739 | 83 | 318 | 4.0 | 5.0 | 0.00 | 0.00 | 0.00 | 41 | 1015.9 |
| 20260830150239 | 83 | 228 | 3.0 | 4.0 | 0.00 | 0.00 | 0.00 | 42 | 1015.9 |
| 20260830145739 | 83 | 294 | 9.0 | 10.0 | 0.00 | 0.00 | 0.00 | 40 | 1015.9 |
| 20260830145239 | 83 | 180 | 7.0 | 7.0 | 0.00 | 0.00 | 0.00 | 40 | 1015.9 |
| 20260830144739 | 83 | 281 | 4.0 | 5.0 | 0.00 | 0.00 | 0.00 | 41 | 1015.9 |
| 20260830144239 | 83 | 328 | 3.0 | 6.0 | 0.00 | 0.00 | 0.00 | 42 | 1015.9 |
| 20260830143739 | 83 | 331 | 7.0 | 8.0 | 0.00 | 0.00 | 0.00 | 41 | 1015.9 |
| 20260830143239 | 83 | 287 | 6.0 | 6.0 | 0.00 | 0.00 | 0.00 | 42 | 1015.9 |
| 20260830142739 | 83 | 318 | 12.0 | 14.0 | 0.00 | 0.00 | 0.00 | 39 | 1015.9 |
| 20260830142239 | 83 | 225 | 5.0 | 8.0 | 0.00 | 0.00 | 0.00 | 40 | 1015.9 |
| 20260830141739 | 83 | 269 | 4.0 | 11.0 | 0.00 | 0.00 | 0.00 | 41 | 1015.9 |
| 20260830141239 | 83 | 216 | 5.0 | 6.0 | 0.00 | 0.00 | 0.00 | 40 | 1015.9 |
| 20260830140739 | 83 | 307 | 9.0 | 10.0 | 0.00 | 0.00 | 0.00 | 40 | 1015.9 |
| 20260830140239 | 83 | 308 | 6.0 | 10.0 | 0.00 | 0.00 | 0.00 | 40 | 1015.9 |
| 20260830135739 | 84 | 323 | 5.0 | 7.0 | 0.00 | 0.00 | 0.00 | 40 | 1015.9 |
| 20260830135239 | 83 | 186 | 8.0 | 9.0 | 0.00 | 0.00 | 0.00 | 40 | 1015.9 |
| 20260830134739 | 83 | 298 | 3.0 | 5.0 | 0.00 | 0.00 | 0.00 | 39 | 1015.9 |
| 20260830134239 | 83 | 255 | 8.0 | 11.0 | 0.00 | 0.00 | 0.00 | 39 | 1015.9 |
| 20260830133739 | 83 | 278 | 11.0 | 13.0 | 0.00 | 0.00 | 0.00 | 39 | 1016.3 |
| 20260830133239 | 83 | 284 | 8.0 | 12.0 | 0.00 | 0.00 | 0.00 | 41 | 1016.3 |
| 20260830132739 | 83 | 237 | 6.0 | 7.0 | 0.00 | 0.00 | 0.00 | 40 | 1016.3 |
| 20260830132239 | 84 | 190 | 4.0 | 5.0 | 0.00 | 0.00 | 0.00 | 41 | 1016.3 |
| 20260830131739 | 84 | 342 | 2.0 | 2.0 | 0.00 | 0.00 | 0.00 | 41 | 1016.3 |
| 20260830131239 | 83 | 272 | 8.0 | 10.0 | 0.00 | 0.00 | 0.00 | 41 | 1016.3 |
| 20260830130739 | 83 | 220 | 14.0 | 17.0 | 0.00 | 0.00 | 0.00 | 40 | 1016.3 |
| 20260830130239 | 84 | 310 | 2.0 | 5.0 | 0.00 | 0.00 | 0.00 | 41 | 1016.3 |
| 20260830125739 | 83 | 278 | 8.0 | 10.0 | 0.00 | 0.00 | 0.00 | 39 | 1016.6 |
| 20260830125239 | 82 | 290 | 8.0 | 10.0 | 0.00 | 0.00 | 0.00 | 39 | 1016.6 |
| 20260830124739 | 83 | 205 | 7.0 | 10.0 | 0.00 | 0.00 | 0.00 | 43 | 1016.6 |
| 20260830124239 | 82 | 208 | 15.0 | 16.0 | 0.00 | 0.00 | 0.00 | 43 | 1016.6 |
| 20260830123739 | 83 | 309 | 3.0 | 6.0 | 0.00 | 0.00 | 0.00 | 42 | 1016.6 |
| 20260830123239 | 83 | 276 | 4.0 | 10.0 | 0.00 | 0.00 | 0.00 | 42 | 1016.6 |
| 20260830122739 | 83 | 101 | 5.0 | 8.0 | 0.00 | 0.00 | 0.00 | 47 | 1016.6 |
| 20260830122239 | 83 | 163 | 6.0 | 11.0 | 0.00 | 0.00 | 0.00 | 41 | 1016.6 |
| 20260830121739 | 82 | 210 | 11.0 | 16.0 | 0.00 | 0.00 | 0.00 | 41 | 1016.6 |
| 20260830121239 | 83 | 293 | 7.0 | 12.0 | 0.00 | 0.00 | 0.00 | 43 | 1016.9 |
| 20260830120739 | 83 | 347 | 2.0 | 3.0 | 0.00 | 0.00 | 0.00 | 43 | 1016.9 |
| 20260830120239 | 83 | 258 | 3.0 | 4.0 | 0.00 | 0.00 | 0.00 | 45 | 1016.9 |
| 20260830115739 | 83 | 192 | 7.0 | 8.0 | 0.00 | 0.00 | 0.00 | 42 | 1016.9 |
| 20260830115239 | 82 | 211 | 6.0 | 8.0 | 0.00 | 0.00 | 0.00 | 42 | 1016.9 |
| 20260830114739 | 82 | 301 | 11.0 | 13.0 | 0.00 | 0.00 | 0.00 | 43 | 1016.9 |
| 20260830114239 | 82 | 328 | 9.0 | 13.0 | 0.00 | 0.00 | 0.00 | 43 | 1016.9 |
| 20260830113739 | 81 | 287 | 13.0 | 18.0 | 0.00 | 0.00 | 0.00 | 42 | 1016.9 |
| 20260830113239 | 82 | 305 | 8.0 | 10.0 | 0.00 | 0.00 | 0.00 | 44 | 1016.9 |
| 20260830112739 | 82 | 291 | 6.0 | 9.0 | 0.00 | 0.00 | 0.00 | 44 | 1016.9 |
| 20260830112239 | 82 | 172 | 4.0 | 6.0 | 0.00 | 0.00 | 0.00 | 46 | 1017.3 |
| 20260830111739 | 81 | 314 | 16.0 | 18.0 | 0.00 | 0.00 | 0.00 | 44 | 1017.3 |
| 20260830111239 | 82 | 282 | 11.0 | 11.0 | 0.00 | 0.00 | 0.00 | 43 | 1017.3 |
| 20260830110739 | 82 | 287 | 4.0 | 6.0 | 0.00 | 0.00 | 0.00 | 42 | 1017.3 |
| 20260830110239 | 81 | 337 | 6.0 | 6.0 | 0.00 | 0.00 | 0.00 | 46 | 1017.3 |
| 20260830105739 | 81 | 319 | 7.0 | 10.0 | 0.00 | 0.00 | 0.00 | 45 | 1017.3 |
| 20260830105239 | 81 | 318 | 7.0 | 7.0 | 0.00 | 0.00 | 0.00 | 44 | 1017.3 |
| 20260830104739 | 81 | 295 | 8.0 | 8.0 | 0.00 | 0.00 | 0.00 | 43 | 1017.3 |
| 20260830104239 | 82 | 241 | 11.0 | 15.0 | 0.00 | 0.00 | 0.00 | 44 | 1017.3 |
| 20260830103739 | 82 | 165 | 3.0 | 8.0 | 0.00 | 0.00 | 0.00 | 47 | 1017.3 |
| 20260830103239 | 81 | 295 | 8.0 | 10.0 | 0.00 | 0.00 | 0.00 | 47 | 1017.3 |
| 20260830102739 | 80 | 302 | 7.0 | 13.0 | 0.00 | 0.00 | 0.00 | 47 | 1017.3 |
| 20260830102239 | 81 | 146 | 8.0 | 9.0 | 0.00 | 0.00 | 0.00 | 47 | 1017.3 |
| 20260830101739 | 82 | 244 | 5.0 | 6.0 | 0.00 | 0.00 | 0.00 | 45 | 1017.3 |
| 20260830101239 | 80 | 222 | 11.0 | 15.0 | 0.00 | 0.00 | 0.00 | 48 | 1017.3 |
| 20260830100739 | 80 | 200 | 7.0 | 10.0 | 0.00 | 0.00 | 0.00 | 47 | 1017.3 |
| 20260830100239 | 81 | 209 | 3.0 | 6.0 | 0.00 | 0.00 | 0.00 | 48 | 1017.3 |
| 20260830095739 | 80 | 304 | 4.0 | 10.0 | 0.00 | 0.00 | 0.00 | 47 | 1017.3 |
| 20260830095239 | 80 | 281 | 4.0 | 5.0 | 0.00 | 0.00 | 0.00 | 50 | 1017.3 |
| 20260830094739 | 80 | 193 | 3.0 | 6.0 | 0.00 | 0.00 | 0.00 | 48 | 1017.3 |
| 20260830094239 | 80 | 293 | 4.0 | 4.0 | 0.00 | 0.00 | 0.00 | 49 | 1017.3 |
| 20260830093739 | 80 | 158 | 4.0 | 6.0 | 0.00 | 0.00 | 0.00 | 49 | 1017.3 |
| 20260830093239 | 80 | 348 | 5.0 | 8.0 | 0.00 | 0.00 | 0.00 | 54 | 1017.3 |
| 20260830092739 | 79 | 221 | 5.0 | 10.0 | 0.00 | 0.00 | 0.00 | 50 | 1017.3 |
| 20260830092239 | 79 | 187 | 11.0 | 12.0 | 0.00 | 0.00 | 0.00 | 51 | 1017.3 |
| 20260830091739 | 78 | 218 | 7.0 | 9.0 | 0.00 | 0.00 | 0.00 | 50 | 1017.3 |
| 20260830091239 | 78 | 165 | 13.0 | 13.0 | 0.00 | 0.00 | 0.00 | 49 | 1017.3 |
| 20260830090739 | 79 | 202 | 13.0 | 13.0 | 0.00 | 0.00 | 0.00 | 49 | 1017.3 |
| 20260830090239 | 79 | 310 | 3.0 | 3.0 | 0.00 | 0.00 | 0.00 | 51 | 1017.3 |
| 20260830085739 | 79 | 266 | 6.0 | 7.0 | 0.00 | 0.00 | 0.00 | 54 | 1017.3 |
| 20260830085239 | 78 | 250 | 2.0 | 3.0 | 0.00 | 0.00 | 0.00 | 53 | 1017.3 |
| 20260830084739 | 78 | 284 | 5.0 | 6.0 | 0.00 | 0.00 | 0.00 | 54 | 1017.3 |